星链-34138 (STARLINK-34138)

导读

STARLINK-34138是美国SpaceX公司星链星座的成员卫星,于2025年5月13日由猎鹰9号火箭从佛罗里达州肯尼迪航天中心发射入轨。作为低轨宽带通信卫星,它采用平板设计与氪霍尔推进器,配备光学星间链路和自主避撞技术,旨在为全球提供高速互联网服务,寿命末期会主动离轨坠入大气层销毁。

基本信息
目录编号:
63971
目录名称:
STARLINK-34138
国际标识:
2025-099V
轨道中心:
EARTH
卫星名称:
星链-34138
卫星全名:
星链-34138 (STARLINK-34138)
卫星状态:
在轨 (已飞行479 天)
发射日期:
2025-05-13 UTC
国别 :
美国 (US)
星等 :
--
轨道信息
数据来源 国际轨道数据
星历时间: 2026-09-03T09:31:34+0800
1天前
查看轨道信息
半长轴: 6861.158km
偏心率: 0.0001055
轨道倾角: 43.001°
近地点辐角 278.451°
升交点赤经 251.008°
平近点角 81.622°
近地点: 482.297km
远地点: 483.745km
周期: 94.266分钟
每日圈数: 15.275897
详细信息
固有亮度:
5
最大亮度:
2.5
卫星平台:
Starlink V1.0
覆盖范围:
全球
运营商:
太空探索技术公司
运营商所在国:
美国
制造商(研发单位):
太空探索技术公司
制造商所在国:
美国
使用方式:
暂无
卫星简介
Starlink 计划是 SpaceX 推出的全球卫星互联网项目,通过发射低轨道卫星,为全球尤其是偏远地区提供高速、低延迟的互联网服务。自 2019 年起,Starlink 已部署数千颗卫星,旨在缩小全球数字鸿沟,推动互联网普及。该项目还为军事、航空等行业提供通信支持,带来广泛经济效益。
2D轨道图
3D轨道图
轨道高度分析图
轨道倾角分析图
轨道综合分析图
查看轨道综合分析图
交会数据列表
事件ID 空间交会对象 最接近时刻(TCA) 交会距离 交会风险概率(CRP) 交会风险指数(CRI) 操作
CDM_260827-193205-907906-397121
2026-08-27T
19:32:09+0000
1.419 km
极远距离
6.051769E-6 低风险 0.51
CDM_260905-094905-694406-397121
2026-09-05T
09:49:33+0000
2.017 km
极远距离
2.69614E-6 低风险 0.44
CDM_260827-230305-707206-397122
2026-08-27T
23:03:26+0000
1.869 km
极远距离
2.02108E-6 低风险 0.41
CDM_260905-181306-397106-728721
2026-09-05T
18:13:30+0000
2.154 km
极远距离
1.999059E-6 低风险 0.41